, TX

(GMT )
Brazos 451

Weather History for KBQX - January, 2014

Change the Weather History Date:

Wednesday, January 29, 2014

  Actual Average Record
Temperature  
Mean Temperature 42 °F -  
Max Temperature 48 °F - - ()
Min Temperature 39 °F - - ()
Degree Days  
Heating Degree Days 22    
Moisture  
Dew Point 28 °F    
Average Humidity 58    
Maximum Humidity 65    
Minimum Humidity 46    
Precipitation  
Precipitation 0.00 in - - ()
Sea Level Pressure  
Sea Level Pressure 30.38 in    
Wind  
Wind Speed 20 mph (NE)    
Max Wind Speed 30 mph    
Max Gust Speed 37 mph    
Visibility 10 miles    
Events      
T = Trace of Precipitation, MM = Missing Value Source: NWS Daily Summary

Daily Weather History Graph

Daily Weather History Graph

Search for Another Location

Airport or City:

Trip Planner

Search our weather history database for the weather conditions in past years. The results will help you decide how hot, cold, wet, or windy it might be!

Date:

Astronomy

Jan. 29, 2014 Rise Set
Actual Time 7:12 AM CST 6:00 PM CST
Civil Twilight 6:47 AM CST 6:24 PM CST
Nautical Twilight 6:19 AM CST 6:53 PM CST
Astronomical Twilight 5:51 AM CST 7:21 PM CST
Moon 5:49 AM CST (1/29) 5:00 PM CST (1/29)
Length of Visible Light 11h 37m
Length of Day
10h 47m
Waning Crescent, 2% of the Moon is Illuminated
Jan 29
Waning Crescent
Jan 30
New
Feb 6
First Quarter
Feb 14
Full
Feb 22
Last Quarter

Hourly Weather History & Observations

Time (CST) Temp. Windchill Dew Point Humidity Pressure Visibility Wind Dir Wind Speed Gust Speed Precip Events Conditions
12:15 AM 39.2 °F 27.4 °F 24.8 °F 56% 30.37 in 10.0 mi NNE 29.9 mph 36.8 mph N/A   Overcast
12:35 AM 39.2 °F 28.3 °F 26.6 °F 61% 30.38 in 10.0 mi NNE 25.3 mph 34.5 mph N/A   Overcast
12:55 AM 39.2 °F 27.8 °F 26.6 °F 61% 30.37 in 10.0 mi NNE 27.6 mph 34.5 mph N/A   Overcast
1:15 AM 39.2 °F 27.8 °F 26.6 °F 61% 30.38 in 10.0 mi NNE 27.6 mph - N/A   Mostly Cloudy
1:35 AM 39.2 °F 28.3 °F 26.6 °F 61% 30.39 in 10.0 mi NNE 25.3 mph 32.2 mph N/A   Overcast
1:55 AM 39.2 °F 28.7 °F 28.4 °F 65% 30.39 in 10.0 mi NNE 23.0 mph 29.9 mph N/A   Overcast
2:15 AM 39.2 °F 29.3 °F 26.6 °F 61% 30.38 in 10.0 mi NNE 20.7 mph 29.9 mph N/A   Mostly Cloudy
2:35 AM 39.2 °F 28.7 °F 28.4 °F 65% 30.38 in 10.0 mi NNE 23.0 mph 32.2 mph N/A   Overcast
2:55 AM 39.2 °F 28.7 °F 28.4 °F 65% 30.38 in 10.0 mi NNE 23.0 mph 31.1 mph N/A   Overcast
3:15 AM 39.2 °F 28.7 °F 26.6 °F 61% 30.37 in 10.0 mi NNE 23.0 mph 29.9 mph N/A   Overcast
3:35 AM 39.2 °F 28.3 °F 28.4 °F 65% 30.37 in 10.0 mi NNE 25.3 mph - N/A   Overcast
3:55 AM 39.2 °F 28.0 °F 28.4 °F 65% 30.37 in 10.0 mi NNE 26.5 mph 34.5 mph N/A   Overcast
4:15 AM 39.2 °F 27.4 °F 28.4 °F 65% 30.36 in 10.0 mi NNE 29.9 mph 36.8 mph N/A   Mostly Cloudy
4:35 AM 39.2 °F 27.8 °F 26.6 °F 61% 30.38 in 10.0 mi NNE 27.6 mph - N/A   Mostly Cloudy
4:55 AM 39.2 °F 28.3 °F 26.6 °F 61% 30.38 in 10.0 mi NNE 25.3 mph - N/A   Overcast
5:15 AM 39.2 °F 28.5 °F 26.6 °F 61% 30.37 in 10.0 mi NNE 24.2 mph 31.1 mph N/A   Mostly Cloudy
5:35 AM 39.2 °F 27.8 °F 28.4 °F 65% 30.38 in 10.0 mi NNE 27.6 mph - N/A   Mostly Cloudy
5:55 AM 39.2 °F 29.6 °F 26.6 °F 61% 30.38 in 10.0 mi NE 19.6 mph 31.1 mph N/A   Mostly Cloudy
6:15 AM 39.2 °F 29.3 °F 26.6 °F 61% 30.38 in 10.0 mi NE 20.7 mph 33.4 mph N/A   Overcast
6:35 AM 39.2 °F 30.5 °F 28.4 °F 65% 30.40 in 10.0 mi NE 16.1 mph 32.2 mph N/A   Overcast
6:55 AM 39.2 °F 28.7 °F 28.4 °F 65% 30.41 in 10.0 mi NNE 23.0 mph 31.1 mph N/A   Overcast
7:15 AM 41.0 °F 32.5 °F 26.6 °F 57% 30.42 in 10.0 mi NE 17.3 mph 26.5 mph N/A   Mostly Cloudy
7:35 AM 41.0 °F 33.1 °F 28.4 °F 61% 30.42 in 10.0 mi ENE 15.0 mph 25.3 mph N/A   Overcast
7:55 AM 41.0 °F 32.8 °F 26.6 °F 57% 30.42 in 10.0 mi NE 16.1 mph 24.2 mph N/A   Scattered Clouds
8:15 AM 41.0 °F 33.1 °F 26.6 °F 57% 30.43 in 10.0 mi NE 15.0 mph 23.0 mph N/A   Partly Cloudy
8:35 AM 41.0 °F 33.9 °F 28.4 °F 61% 30.45 in 10.0 mi NE 12.7 mph 20.7 mph N/A   Scattered Clouds
8:55 AM 41.0 °F 33.9 °F 28.4 °F 61% 30.45 in 10.0 mi ENE 12.7 mph 23.0 mph N/A   Scattered Clouds
9:15 AM 41.0 °F 33.9 °F 28.4 °F 61% 30.46 in 10.0 mi NE 12.7 mph 20.7 mph N/A   Scattered Clouds
9:35 AM 41.0 °F 33.5 °F 28.4 °F 61% 30.46 in 10.0 mi ENE 13.8 mph 28.8 mph N/A   Scattered Clouds
9:55 AM 42.8 °F 35.4 °F 30.2 °F 61% 30.47 in 10.0 mi NE 15.0 mph 23.0 mph N/A   Partly Cloudy
10:15 AM 42.8 °F 36.2 °F 30.2 °F 61% 30.47 in 10.0 mi NE 12.7 mph 21.9 mph N/A   Scattered Clouds
10:35 AM 42.8 °F 35.4 °F 30.2 °F 61% 30.44 in 10.0 mi ENE 15.0 mph 24.2 mph N/A   Scattered Clouds
10:55 AM 42.8 °F 34.5 °F 28.4 °F 57% 30.44 in 10.0 mi ENE 18.4 mph 27.6 mph N/A   Partly Cloudy
11:15 AM 42.8 °F 35.8 °F 28.4 °F 57% 30.45 in 10.0 mi ENE 13.8 mph 25.3 mph N/A   Clear
11:35 AM 42.8 °F 36.2 °F 28.4 °F 57% 30.46 in 10.0 mi ENE 12.7 mph 27.6 mph N/A   Clear
11:55 AM 42.8 °F 36.2 °F 28.4 °F 57% 30.45 in 10.0 mi ENE 12.7 mph 23.0 mph N/A   Clear
12:15 PM 42.8 °F 35.4 °F 28.4 °F 57% 30.42 in 10.0 mi ENE 15.0 mph 25.3 mph N/A   Partly Cloudy
12:35 PM 42.8 °F 34.5 °F 28.4 °F 57% 30.41 in 10.0 mi ENE 18.4 mph 28.8 mph N/A   Partly Cloudy
12:55 PM 42.8 °F 35.8 °F 30.2 °F 61% 30.39 in 10.0 mi ENE 13.8 mph 23.0 mph N/A   Partly Cloudy
1:15 PM 42.8 °F 34.8 °F 28.4 °F 57% 30.39 in 10.0 mi NE 17.3 mph 25.3 mph N/A   Scattered Clouds
1:35 PM 42.8 °F 34.8 °F 28.4 °F 57% 30.39 in 10.0 mi NE 17.3 mph 27.6 mph N/A   Scattered Clouds
1:55 PM 42.8 °F 34.5 °F 28.4 °F 57% 30.39 in 10.0 mi NE 18.4 mph 28.8 mph N/A   Scattered Clouds
2:15 PM 42.8 °F 36.2 °F 28.4 °F 57% 30.39 in 10.0 mi ENE 12.7 mph 25.3 mph N/A   Mostly Cloudy
2:35 PM 42.8 °F 35.1 °F 28.4 °F 57% 30.38 in 10.0 mi ENE 16.1 mph 23.0 mph N/A   Scattered Clouds
2:55 PM 42.8 °F 35.8 °F 30.2 °F 61% 30.37 in 10.0 mi ENE 13.8 mph 20.7 mph N/A   Partly Cloudy
3:15 PM 42.8 °F 34.5 °F 28.4 °F 57% 30.36 in 10.0 mi ENE 18.4 mph - N/A   Scattered Clouds
3:35 PM 42.8 °F 35.8 °F 30.2 °F 61% 30.36 in 10.0 mi ENE 13.8 mph 23.0 mph N/A   Mostly Cloudy
3:55 PM 42.8 °F 35.8 °F 30.2 °F 61% 30.34 in 10.0 mi East 13.8 mph 23.0 mph N/A   Mostly Cloudy
4:15 PM 42.8 °F 37.0 °F 30.2 °F 61% 30.34 in 10.0 mi ENE 10.4 mph 24.2 mph N/A   Scattered Clouds
4:35 PM 42.8 °F 37.5 °F 30.2 °F 61% 30.35 in 10.0 mi ENE 9.2 mph 21.9 mph N/A   Partly Cloudy
4:55 PM 42.8 °F 37.0 °F 30.2 °F 61% 30.34 in 10.0 mi ENE 10.4 mph 23.0 mph N/A   Partly Cloudy
5:15 PM 42.8 °F 35.1 °F 30.2 °F 61% 30.35 in 10.0 mi East 16.1 mph 23.0 mph N/A   Partly Cloudy
5:35 PM 42.8 °F 36.6 °F 28.4 °F 57% 30.36 in 10.0 mi ENE 11.5 mph 21.9 mph N/A   Clear
5:55 PM 42.8 °F 38.0 °F 30.2 °F 61% 30.36 in 10.0 mi East 8.1 mph 20.7 mph N/A   Clear
6:15 PM 42.8 °F 35.8 °F 30.2 °F 61% 30.36 in 10.0 mi ENE 13.8 mph 19.6 mph N/A   Clear
6:35 PM 44.6 °F 38.4 °F 30.2 °F 57% 30.36 in 10.0 mi ENE 12.7 mph 21.9 mph N/A   Clear
6:55 PM 44.6 °F 38.8 °F 28.4 °F 53% 30.36 in 10.0 mi East 11.5 mph 21.9 mph N/A   Clear
7:15 PM 44.6 °F 40.2 °F 30.2 °F 57% 30.36 in 10.0 mi ENE 8.1 mph 20.7 mph N/A   Clear
7:35 PM 44.6 °F 39.7 °F 30.2 °F 57% 30.36 in 10.0 mi East 9.2 mph 23.0 mph N/A   Clear
7:55 PM 44.6 °F 40.2 °F 28.4 °F 53% 30.36 in 10.0 mi ENE 8.1 mph 23.0 mph N/A   Clear
8:05 PM 44.6 °F 39.7 °F 28.4 °F 53% 30.36 in 10.0 mi Variable 9.2 mph 20.7 mph N/A   Clear
8:35 PM 44.6 °F 38.8 °F 30.2 °F 57% 30.35 in 10.0 mi ENE 11.5 mph 20.7 mph N/A   Partly Cloudy
8:55 PM 44.6 °F 38.8 °F 28.4 °F 53% 30.35 in 10.0 mi ENE 11.5 mph 19.6 mph N/A   Clear
9:15 PM 44.6 °F 41.4 °F 28.4 °F 53% 30.35 in 10.0 mi Variable 5.8 mph 17.3 mph N/A   Clear
9:35 PM 46.4 °F 43.5 °F 26.6 °F 46% 30.35 in 10.0 mi Variable 5.8 mph 15.0 mph N/A   Clear
9:55 PM 46.4 °F 41.9 °F 26.6 °F 46% 30.34 in 10.0 mi East 9.2 mph - N/A   Clear
10:15 PM 46.4 °F 41.9 °F 28.4 °F 50% 30.34 in 10.0 mi East 9.2 mph 17.3 mph N/A   Clear
10:35 PM 46.4 °F 41.1 °F 28.4 °F 50% 30.33 in 10.0 mi East 11.5 mph - N/A   Partly Cloudy
10:55 PM 46.4 °F 41.5 °F 28.4 °F 50% 30.32 in 10.0 mi East 10.4 mph 18.4 mph N/A   Partly Cloudy
11:15 PM 46.4 °F 44.3 °F 26.6 °F 46% 30.33 in 10.0 mi Variable 4.6 mph 16.1 mph N/A   Partly Cloudy
11:35 PM 46.4 °F 41.9 °F 26.6 °F 46% 30.33 in 10.0 mi Variable 9.2 mph 15.0 mph N/A   Clear
11:55 PM 48.2 °F - 30.2 °F 50% 30.31 in 10.0 mi East 9.2 mph 15.0 mph N/A   Partly Cloudy